Location: Harwich
(41.6860°N, 70.0760°W)
Time: 19:39:19
(UTC-05:00)

Daily predictions for brighter satellites

Satellite Brightness Start Highest point End
(mag) Time Altitude Azimuth Time Altitude Azimuth Time Altitude Azimuth
Cosmos 1697 Rocket 3.7 17:39:04 10° NNW 17:44:34 53° WSW 17:50:01 10° S
Cosmos 2360 Rocket 3.7 17:42:35 10° N 17:46:09 17° NE 17:49:43 10° E
ERBS 2.3 17:43:50 10° NW 17:47:20 85° NE 17:50:48 10° SE
Cosmos 1980 Rocket 2.4 17:41:55 10° NNW 17:47:38 84° WSW 17:53:19 10° SSE
ATLAS CENTAUR R/B 3.6 17:45:10 10° WSW 17:49:04 26° NW 17:52:46 10° N
Cosmos 1745 Rocket 4.1 17:44:00 10° SSE 17:50:10 57° E 17:56:18 10° NNE
METEOR-M 4.3 17:49:14 10° SSE 17:54:24 53° ENE 17:59:36 10° N
Meteor 1-18 Rocket 4.4 17:50:11 10° N 17:55:35 49° ENE 18:00:59 10° SSE
FREGAT/IRIS 3.5 17:54:33 10° SE 17:57:18 30° ENE 18:00:04 10° N
Cosmos 1190 Rocket 4.5 17:53:22 10° SSE 17:58:07 38° ESE 18:02:53 10° NE
NOAA 12 4.2 17:53:26 10° SSE 17:58:38 59° ENE 18:03:53 10° N
Cosmos 2151 Rocket 4.3 17:57:43 10° SSE 18:01:41 32° E 18:05:42 10° NNE
GEOS 3 Rocket 3.9 17:57:19 10° NE 18:02:25 50° ESE 18:07:32 10° SSW
Okean 3 4.4 17:58:28 10° NNW 18:02:42 55° W 18:06:52 10° S
SL-8 R/B 3.9 17:58:07 10° WNW 18:02:56 73° SSW 18:07:45 10° SE
ALOS 2.9 18:00:22 10° SE 18:04:31 33° ENE 18:08:41 10° N
Meteor 1-14 Rocket 4.4 18:01:47 10° S 18:07:44 87° E 18:13:45 10° N
Cosmos 1238 Rocket 4.2 18:06:26 10° NE 18:07:24 12° ENE 18:07:24 12° ENE
SJ-6B 3.0 18:04:18 10° SSE 18:08:13 49° ENE 18:12:04 10° N
Spot 2 Rocket 4.2 18:06:21 10° SE 18:10:44 31° ENE 18:15:10 10° N
Cosmos 2082 Rocket 4.3 18:09:13 10° WSW 18:13:53 26° NW 18:18:36 10° N
Cosmos 1461 3.4 18:13:08 10° NNW 18:16:52 36° NE 18:19:58 14° ESE
SL-16 R/B 2.2 18:12:11 10° NNW 18:17:50 63° ENE 18:23:26 10° SE
CENTAUR R/B 3.5 18:12:17 10° NW 18:20:08 69° WSW 18:28:26 10° SSE
Meteor 1-20 Rocket 4.2 18:17:38 10° S 18:23:24 73° E 18:29:16 10° NNE
Helios 1A 4.2 18:25:25 20° E 18:26:31 22° ENE 18:29:44 10° NNE
Cosmos 1633 3.4 18:25:44 10° SSE 18:28:57 29° E 18:32:10 10° NNE
HJ-1C 3.4 18:28:00 10° SSE 18:31:18 55° ENE 18:34:38 10° N
Cosmos 1975 Rocket 4.4 18:27:39 10° NNW 18:31:45 43° W 18:35:50 10° SSW
Cosmos 44 Rocket 4.1 18:27:42 10° NW 18:32:19 52° WSW 18:36:50 10° SSE
Cosmos 2322 Rocket 2.2 18:31:39 10° NNW 18:37:18 89° WSW 18:42:55 10° SSE
Okean 1 3.2 18:33:16 10° N 18:37:19 77° E 18:41:23 10° SSE
SL-19 R/B 4.3 18:34:30 10° SSE 18:40:03 66° ENE 18:45:54 10° N
Cosmos 1340 2.9 18:36:57 10° N 18:40:37 45° ENE 18:43:10 18° SE
Nadezhda 1 Rocket 4.5 18:38:29 10° NNW 18:44:29 62° W 18:50:26 10° S
Cosmos 2322 4.2 18:40:54 10° N 18:46:15 39° ENE 18:48:39 27° ESE
CZ-2D R/B 3.5 18:47:18 35° ESE 18:48:14 43° ENE 18:51:53 10° N
Cosmos 1818 3.5 18:45:01 10° SSW 18:50:23 67° ESE 18:54:45 16° NE
Tiangong 2 0.9 18:47:28 10° W 18:50:33 80° SSW 18:50:56 64° SE
Cosmos 1536 Rocket 3.5 18:46:08 10° N 18:50:37 89° ENE 18:55:05 10° S
Resurs 01 Rocket 1.5 18:47:52 10° SSE 18:52:16 79° ENE 18:56:41 10° N
Cosmos 2181 Rocket 3.9 18:46:31 10° N 18:52:43 68° E 18:58:58 10° SSE
DNEPR-1 R/B 3.6 18:50:46 10° NW 18:55:01 73° WSW 18:58:09 18° SSE
Helios 1B rocket 3.7 18:56:57 25° SSE 18:56:57 25° SSE 18:59:02 10° SSE
Meteor 2-4 Rocket 4.0 18:50:39 10° N 18:55:58 42° ENE 18:58:03 30° ESE
COSMOS 2428 3.7 18:51:58 10° N 18:56:44 27° NE 18:56:57 26° ENE
Meteor 1-11 Rocket 3.7 18:53:56 10° S 18:59:34 61° E 19:05:22 10° NNE
Cosmos 44 4.3 18:57:01 10° NW 19:01:09 40° WSW 19:05:11 10° S
H-2A R/B 2.5 18:58:38 15° SSE 19:01:36 86° ENE 19:05:20 10° N
FENGYUN 3A 3.9 18:57:04 10° S 19:02:27 73° WSW 19:07:53 10° NNW
DELTA 2 R/B (1) 3.7 18:58:20 10° W 19:03:55 69° S 19:05:59 39° ESE
SL-08 ROCKET BODY 4.5 19:05:26 10° SSE 19:11:24 54° E 19:17:24 10° NNE
Cosmos 2237 Rocket 4.2 19:08:48 10° NNE 19:10:17 13° NNE 19:10:17 13° NNE
Cosmos 2184 Rocket 4.1 19:08:09 10° SSE 19:14:12 50° E 19:20:14 10° NNE
Cosmos 1570 Rocket 4.4 19:09:43 10° N 19:14:21 42° NE 19:14:21 42° NE
Cosmos 2074 Rocket 4.0 19:09:48 10° SSE 19:15:49 53° E 19:21:54 10° NNE
Cosmos 676 Rocket 4.2 19:10:47 10° SSW 19:15:57 71° WNW 19:21:11 10° NNE
Cosmos 407 Rocket 4.4 19:11:21 10° SW 19:16:24 49° WNW 19:21:34 10° N
Cosmos 1709 Rocket 4.3 19:11:24 10° SSW 19:17:36 65° W 19:23:46 10° N
Cosmos 1023 Rocket 4.3 19:13:21 10° SSW 19:18:25 74° ESE 19:21:03 29° NNE
Resurs 1-3 4.0 19:15:39 10° S 19:19:58 62° WSW 19:24:21 10° NNW
Cosmos 1300 Rocket 3.9 19:20:43 10° SSW 19:25:04 64° W 19:29:29 10° N
ATLAS 2A CENTAUR R/B 4.4 19:26:32 10° SSW 19:29:17 15° SSE 19:29:17 15° SSE
Cosmos 2360 Rocket 2.1 19:25:13 10° NNW 19:30:54 84° WSW 19:32:44 45° SSE
Cosmos 2219 Rocket 3.6 19:30:24 10° N 19:33:20 24° NNE 19:33:20 24° NNE
Cosmos 2208 Rocket 4.3 19:30:52 10° NNW 19:35:30 55° NNE 19:35:30 55° NNE
Cosmos 2285 Rocket 4.4 19:31:38 10° N 19:37:06 46° NE 19:37:06 46° NE
ALOS 4.4 19:38:06 10° SSW 19:41:57 25° W 19:45:50 10° NW
Cosmos 1140 Rocket 3.8 19:42:06 10° SSW 19:47:09 61° WNW 19:49:24 32° N
Okean 1 Rocket 4.2 19:47:43 10° SSW 19:51:59 43° WNW 19:56:18 10° N
Cosmos 2333 Rocket 3.8 19:47:31 10° N 19:50:09 23° NNE 19:50:09 23° NNE
Envisat 4.1 20:07:28 39° NNW 20:07:28 39° NNW 20:10:40 10° NNW
USA 229 DEB 4.0 20:04:15 10° NNW 20:10:23 60° NNE 20:10:23 60° NNE
USA 229 4.0 20:04:21 10° NNW 20:10:28 59° NNE 20:10:28 59° NNE
COSMOS 2428 4.2 20:35:47 10° NW 20:39:00 32° NW 20:39:00 32° NW
